Waarnemingen

Advertentie
Mijn weer
Malmo/Sturup, Zweden (2636): temperatuur & dauwpunt: 11.10.2017 03:00:00 - 17.10.2017 03:00:00 (CEST)Malmo/Sturup, Zweden (2636): windsnelheid: 11.10.2017 03:00:00 - 17.10.2017 03:00:00 (CEST)Malmo/Sturup, Zweden (2636): windrichting: 11.10.2017 03:00:00 - 17.10.2017 03:00:00 (CEST)Malmo/Sturup, Zweden (2636): luchtdruk: 11.10.2017 03:00:00 - 17.10.2017 03:00:00 (CEST)Malmo/Sturup, Zweden (2636): zicht: 11.10.2017 03:00:00 - 17.10.2017 03:00:00 (CEST)
Datum & Tijd tt [°C] td [°C] ff [km/u] ff [kn] dd ppp [hPa] vv [km]
17.10.2017 03:00:00 11,9 11,7 13 7 ZZO 1018,6 1,6
17.10.2017 02:00:00 12,0 12,0 11 6 ZZO 1018,9 1,6
17.10.2017 01:00:00 11,9 11,7 8 4 ZZO 1019,6 0,9
17.10.2017 00:00:00 9,8 9,8 9 5 Z 1020,0 0,1
16.10.2017 23:00:00 9,5 9,4 4 2 - 1020,3 0,4
16.10.2017 22:00:00 10,9 10,7 8 4 WZW 1020,5 2,0
16.10.2017 21:00:00 12,3 11,8 11 6 WZW 1020,4 4,0
16.10.2017 20:00:00 11,9 11,1 9 5 ZW 1020,2 6
16.10.2017 19:00:00 12,9 11,6 9 5 WZW 1019,9 8
16.10.2017 18:00:00 14,0 12,2 9 5 WZW 1019,6 10
16.10.2017 17:00:00 14,8 12,8 15 8 W 1019,4 10
16.10.2017 16:00:00 15,1 12,6 11 6 W 1019,1 8
16.10.2017 15:00:00 14,7 13,1 11 6 W 1019,3 7
16.10.2017 14:00:00 14,9 13,1 16 9 W 1019,0 6
16.10.2017 13:00:00 14,7 13,4 15 8 W 1019,2 5
16.10.2017 12:00:00 14,7 13,4 16 9 W 1018,7 5
16.10.2017 11:00:00 14,6 13,8 16 9 WZW 1018,7 3,5
16.10.2017 10:00:00 14,0 13,2 13 7 WZW 1018,3 5
16.10.2017 09:00:00 13,6 12,8 13 7 ZW 1017,8 5
16.10.2017 08:00:00 13,0 12,4 9 5 WZW 1017,7 5
16.10.2017 07:00:00 12,5 12,0 9 5 ZW 1017,5 5
16.10.2017 06:00:00 11,8 11,0 9 5 ZW 1017,5 4,8
16.10.2017 05:00:00 12,6 11,8 11 6 ZW 1017,8 6
16.10.2017 04:00:00 11,1 11,1 11 6 ZZW 1017,9 4,2
16.10.2017 03:00:00 11,5 11,3 11 6 ZZW 1018,4 2,6
16.10.2017 02:00:00 12,2 11,7 13 7 ZW 1018,7 5
16.10.2017 01:00:00 13,6 13,4 16 9 ZZW 1018,8 4,1
16.10.2017 00:00:00 12,9 12,7 15 8 ZZW 1019,1 3,0
15.10.2017 23:00:00 12,1 12,1 13 7 Z 1019,6 3,0
15.10.2017 22:00:00 13,1 13,1 15 8 Z 1020,1 2,5
15.10.2017 21:00:00 13,4 13,2 16 9 Z 1020,8 1,2
15.10.2017 20:00:00 13,0 13,0 16 9 Z 1021,3 0,3
15.10.2017 19:00:00 13,2 13,0 15 8 ZZW 1021,8 3,0
15.10.2017 18:00:00 12,8 12,8 21 11 ZZW 1021,8 0,4
15.10.2017 17:00:00 12,3 12,1 18 10 ZZW 1022,1 0,3
15.10.2017 16:00:00 14,1 13,6 18 10 ZZW 1022,5 5
15.10.2017 15:00:00 15,8 14,5 15 8 ZW 1022,7 9
15.10.2017 14:00:00 15,8 14,3 11 6 ZW 1023,0 10
15.10.2017 13:00:00 15,0 14,2 13 7 ZW 1023,4 9
15.10.2017 12:00:00 14,9 13,4 11 6 ZW 1023,6 10
15.10.2017 11:00:00 14,7 12,9 9 5 WZW 1023,7 10
15.10.2017 10:00:00 14,0 12,2 13 7 WNW 1023,5 10
15.10.2017 09:00:00 12,9 12,4 11 6 W 1023,4 10
15.10.2017 08:00:00 12,8 12,3 13 7 W 1023,1 10
15.10.2017 07:00:00 13,1 12,5 15 8 W 1022,5 10
15.10.2017 06:00:00 12,8 12,6 13 7 NW 1022,3 4,3
15.10.2017 05:00:00 13,0 12,8 16 9 NW 1021,6 2,9
15.10.2017 04:00:00 14,6 14,1 21 11 W 1020,6 4,2
15.10.2017 03:00:00 14,7 14,2 26 14 W 1020,2 2,3
15.10.2017 02:00:00 14,6 14,1 24 13 W 1019,9 8
15.10.2017 01:00:00 14,7 14,2 24 13 W 1019,9 6
15.10.2017 00:00:00 14,4 13,9 22 12 WZW 1020,2 4,1
14.10.2017 23:00:00 14,4 14,2 22 12 WZW 1020,1 2,7
14.10.2017 22:00:00 14,6 14,4 22 12 WZW 1020,4 2,6
14.10.2017 21:00:00 14,7 14,5 24 13 W 1020,1 3,3
14.10.2017 20:00:00 14,8 14,6 22 12 WZW 1020,1 2,7
14.10.2017 19:00:00 14,9 14,7 21 11 W 1019,8 4,2
14.10.2017 18:00:00 15,3 14,8 18 10 W 1019,3 2,8
14.10.2017 17:00:00 15,3 14,8 18 10 W 1019,0 4,0
14.10.2017 16:00:00 15,4 14,9 24 13 W 1018,9 5
14.10.2017 15:00:00 15,5 14,9 22 12 W 1018,5 8
14.10.2017 14:00:00 15,4 14,9 26 14 W 1018,3 3,5
14.10.2017 13:00:00 15,2 14,7 22 12 WZW 1018,4 5
14.10.2017 12:00:00 15,0 14,5 24 13 WZW 1018,4 4,0
14.10.2017 11:00:00 14,8 14,3 24 13 WZW 1018,3 4,5
14.10.2017 10:00:00 14,7 14,5 24 13 WZW 1017,9 3,0
14.10.2017 09:00:00 14,5 14,3 22 12 WZW 1017,6 3,2
14.10.2017 08:00:00 14,3 14,1 21 11 WZW 1017,5 2,9
14.10.2017 07:00:00 14,3 14,1 21 11 WZW 1017,4 2,5
14.10.2017 06:00:00 14,2 14,0 21 11 WZW 1017,7 1,7
14.10.2017 05:00:00 14,0 14,0 22 12 WZW 1017,6 0,6
14.10.2017 04:00:00 13,5 13,5 24 13 WZW 1017,9 1,0
14.10.2017 03:00:00 13,4 13,2 22 12 ZW 1018,0 1,3
14.10.2017 02:00:00 13,1 12,6 24 13 ZW 1018,5 2,5
14.10.2017 01:00:00 12,8 12,3 24 13 ZW 1018,8 4,8
14.10.2017 00:00:00 12,6 12,1 21 11 ZW 1019,0 2,9
13.10.2017 23:00:00 12,4 11,9 21 11 ZW 1019,4 2,2
13.10.2017 22:00:00 12,7 11,8 18 10 WZW 1019,9 7
13.10.2017 21:00:00 12,4 11,3 15 8 ZW 1020,2 10
13.10.2017 20:00:00 12,2 11,1 16 9 ZW 1020,5 10
13.10.2017 19:00:00 12,2 10,6 13 7 ZZW 1020,4 10
13.10.2017 18:00:00 12,0 10,2 11 6 ZW 1020,3 10
13.10.2017 17:00:00 13,1 9,5 13 7 WZW 1020,5 10
13.10.2017 16:00:00 14,0 8,8 18 10 W 1020,5 10
13.10.2017 15:00:00 13,9 9,3 18 10 W 1020,6 10
13.10.2017 14:00:00 13,6 8,4 18 10 WNW 1020,1 10
13.10.2017 13:00:00 13,4 7,4 21 11 WNW 1020,5 10
13.10.2017 12:00:00 12,3 8,9 18 10 W 1019,8 10
13.10.2017 11:00:00 11,6 8,8 18 10 WNW 1019,8 10
13.10.2017 10:00:00 11,0 8,7 18 10 W 1019,3 10
13.10.2017 09:00:00 10,0 8,1 21 11 W 1018,5 10
13.10.2017 08:00:00 9,6 7,7 15 8 W 1017,8 10
13.10.2017 07:00:00 10,3 7,7 22 12 WNW 1016,9 10
13.10.2017 06:00:00 10,5 7,9 28 15 WNW 1016,2 10
13.10.2017 05:00:00 10,1 7,5 28 15 WNW 1015,4 10
13.10.2017 04:00:00 10,0 7,2 26 14 WNW 1015,0 10
13.10.2017 03:00:00 9,9 7,0 26 14 WNW 1014,3 10
13.10.2017 02:00:00 10,1 6,8 29 16 W 1013,4 10
13.10.2017 01:00:00 10,0 6,7 31 17 WNW 1012,7 10
13.10.2017 00:00:00 10,2 6,7 29 16 WNW 1012,2 10
12.10.2017 23:00:00 10,4 6,2 35 19 W 1011,6 10
12.10.2017 22:00:00 10,3 6,8 29 16 W 1011,1 10
12.10.2017 21:00:00 10,0 7,2 28 15 W 1010,4 10
12.10.2017 20:00:00 9,6 6,7 28 15 W 1010,2 10
12.10.2017 19:00:00 9,8 7,2 28 15 W 1009,8 10
12.10.2017 18:00:00 12,0 6,9 29 16 W 1008,9 10
12.10.2017 17:00:00 11,6 6,5 44 24 W 1008,4 10
12.10.2017 16:00:00 12,5 5,9 41 22 W 1007,2 10
12.10.2017 15:00:00 12,7 7,4 42 23 W 1005,8 10
12.10.2017 14:00:00 13,3 9,0 42 23 W 1004,9 10
12.10.2017 13:00:00 13,5 9,2 39 21 W 1004,1 10
12.10.2017 12:00:00 12,6 9,4 41 22 W 1003,2 10
12.10.2017 11:00:00 12,7 9,7 35 19 WZW 1002,6 10
12.10.2017 10:00:00 11,6 9,7 35 19 WZW 1002,4 6
12.10.2017 09:00:00 12,5 10,9 34 18 WZW 1002,0 10
12.10.2017 08:00:00 12,3 11,2 37 20 ZW 1001,5 10
12.10.2017 07:00:00 12,1 11,6 37 20 ZZW 1001,5 4,0
12.10.2017 06:00:00 12,3 10,9 31 17 ZW 1002,5 10
12.10.2017 05:00:00 12,5 10,7 29 16 ZW 1003,3 10
12.10.2017 04:00:00 12,4 10,8 28 15 ZZW 1004,2 10
12.10.2017 03:00:00 12,5 10,9 26 14 ZW 1005,1 10
12.10.2017 02:00:00 12,8 11,2 28 15 ZW 1005,8 10
12.10.2017 01:00:00 12,8 11,5 22 12 ZW 1006,6 10
12.10.2017 00:00:00 12,8 11,5 21 11 ZW 1007,5 10
11.10.2017 23:00:00 13,1 12,3 28 15 ZW 1007,6 10
11.10.2017 22:00:00 13,2 12,4 26 14 WZW 1007,8 10
11.10.2017 21:00:00 13,0 12,5 24 13 WZW 1007,8 3,0
11.10.2017 20:00:00 13,4 12,9 26 14 ZW 1007,6 7
11.10.2017 19:00:00 12,8 12,6 22 12 ZW 1007,4 5
11.10.2017 18:00:00 12,4 11,9 15 8 ZW 1007,6 4,8
11.10.2017 17:00:00 12,5 11,4 22 12 WZW 1007,8 9
11.10.2017 16:00:00 14,0 12,2 22 12 WZW 1007,6 10
11.10.2017 15:00:00 13,5 12,7 21 11 WZW 1007,8 8
11.10.2017 14:00:00 12,9 12,4 13 7 ZW 1007,9 9
11.10.2017 13:00:00 11,4 10,6 8 4 ZW 1008,3 7
11.10.2017 12:00:00 12,1 11,2 13 7 ZW 1008,4 10
11.10.2017 11:00:00 11,9 11,1 9 5 ZW 1008,5 10
11.10.2017 10:00:00 11,7 10,9 15 8 WZW 1008,3 10
11.10.2017 09:00:00 11,3 10,5 15 8 WZW 1008,2 10
11.10.2017 08:00:00 10,5 9,4 15 8 W 1007,9 10
11.10.2017 07:00:00 10,8 9,1 21 11 W 1007,5 10
11.10.2017 06:00:00 11,1 10,2 16 9 W 1007,5 10
11.10.2017 05:00:00 10,9 9,8 16 9 W 1007,2 10
11.10.2017 04:00:00 10,9 10,0 16 9 W 1007,0 10
11.10.2017 03:00:00 11,2 10,1 21 11 W 1006,8 10

tt = temperatuur
td = dauwpunt
ff = windsnelheid
dd = windrichting
ppp = luchtdruk
vv = zicht

Weerstations in de omgeving